SBU123 TFFG-TFFJ

Flight info

Callsign SBU123
Flight time 0h 8m
Altitude 1500
Route GUSTAVIA
Aircraft C208/L-SDFGR/C

Departure

Time 2026-04-21 14:38
Airport Grand Case-l'Espérance Airport (TFFG)

Arrival

Time 2026-04-21 14:47
Airport St. Jean Airport (TFFJ)
Time Latitude Longitude Altitude Speed Heading
2026-04-21 14:35 18.10127 -63.04782 13 ft 0 kts 152°
2026-04-21 14:36 18.10119 -63.04778 13 ft 5 kts 152°
2026-04-21 14:36 18.10055 -63.04755 13 ft 15 kts 197°
2026-04-21 14:36 18.10043 -63.04877 13 ft 25 kts 289°
2026-04-21 14:37 18.10105 -63.05085 13 ft 34 kts 287°
2026-04-21 14:37 18.10137 -63.05225 12 ft 7 kts 287°
2026-04-21 14:37 18.10143 -63.05211 12 ft 7 kts 107°
2026-04-21 14:37 18.10091 -63.05041 13 ft 48 kts 107°
2026-04-21 14:38 18.09949 -63.04557 58 ft 82 kts 104°
2026-04-21 14:38 18.09827 -63.04004 370 ft 81 kts 99°
2026-04-21 14:38 18.09697 -63.03404 693 ft 87 kts 113°
2026-04-21 14:38 18.09271 -63.02902 1020 ft 98 kts 130°
2026-04-21 14:39 18.08759 -63.02379 1356 ft 109 kts 131°
2026-04-21 14:39 18.08181 -63.01784 1595 ft 125 kts 131°
2026-04-21 14:39 18.07507 -63.01114 1633 ft 138 kts 130°
2026-04-21 14:39 18.06792 -63.00400 1608 ft 144 kts 131°
2026-04-21 14:40 18.06058 -62.99673 1589 ft 145 kts 132°
2026-04-21 14:40 18.05318 -62.98948 1579 ft 145 kts 133°
2026-04-21 14:40 18.04581 -62.98222 1572 ft 145 kts 133°
2026-04-21 14:40 18.03846 -62.97497 1574 ft 145 kts 133°
2026-04-21 14:41 18.03111 -62.96774 1574 ft 145 kts 133°
2026-04-21 14:41 18.02373 -62.96050 1574 ft 146 kts 133°
2026-04-21 14:41 18.01635 -62.95323 1576 ft 146 kts 133°
2026-04-21 14:41 18.00895 -62.94596 1569 ft 145 kts 133°
2026-04-21 14:42 18.00173 -62.93880 1562 ft 144 kts 132°
2026-04-21 14:42 17.99446 -62.93157 1562 ft 143 kts 132°
2026-04-21 14:42 17.98720 -62.92440 1569 ft 143 kts 132°
2026-04-21 14:42 17.97976 -62.91736 1570 ft 146 kts 139°
2026-04-21 14:43 17.97038 -62.91260 1517 ft 155 kts 155°
2026-04-21 14:43 17.96027 -62.90899 1575 ft 151 kts 158°
2026-04-21 14:43 17.95026 -62.90545 1544 ft 150 kts 155°
2026-04-21 14:43 17.94057 -62.90144 1494 ft 151 kts 153°
2026-04-21 14:44 17.93105 -62.89733 1436 ft 144 kts 154°
2026-04-21 14:44 17.92186 -62.89360 1222 ft 138 kts 154°
2026-04-21 14:44 17.91343 -62.88974 1001 ft 125 kts 150°
2026-04-21 14:44 17.90633 -62.88615 929 ft 101 kts 146°
2026-04-21 14:45 17.90199 -62.88148 872 ft 85 kts 103°
2026-04-21 14:45 17.90196 -62.87529 836 ft 80 kts 79°
2026-04-21 14:45 17.90276 -62.86958 708 ft 78 kts 78°
2026-04-21 14:45 17.90333 -62.86393 602 ft 77 kts 82°
2026-04-21 14:46 17.90370 -62.85847 550 ft 72 kts 81°
2026-04-21 14:46 17.90393 -62.85354 385 ft 64 kts 79°
2026-04-21 14:46 17.90420 -62.84893 240 ft 66 kts 75°
2026-04-21 14:46 17.90440 -62.84381 36 ft 64 kts 87°
2026-04-21 14:47 17.90445 -62.84116 18 ft 12 kts 88°
2026-04-21 14:47 17.90458 -62.84069 15 ft 7 kts 265°
2026-04-21 14:47 17.90445 -62.84142 20 ft 13 kts 269°
2026-04-21 14:47 17.90441 -62.84254 29 ft 18 kts 268°
2026-04-21 14:48 17.90438 -62.84374 36 ft 10 kts 264°
2026-04-21 14:48 17.90394 -62.84410 39 ft 12 kts 265°
2026-04-21 14:48 17.90392 -62.84504 46 ft 11 kts 269°
2026-04-21 14:48 17.90372 -62.84525 47 ft 0 kts 87°